This is the latest recevied weather packets stored in our database for station/object SR9SMR. If no packets are shown the sender has not sent any weather packets the latest 1 day(s).
| Time | Temp. | Humidity | Pressure | Rain* | Wind** | Luminosity | Snow |
|---|---|---|---|---|---|---|---|
| 1777977641 | 17.78° C | 100% | 895.8 hPa | - | 9.83 m/s, 219° | - | - |
| 1777977516 | 17.78° C | 100% | 896.2 hPa | - | 9.83 m/s, 232° | - | - |
| 1777977392 | 17.78° C | 100% | 896.3 hPa | - | 10.28 m/s, 233° | - | - |
| 1777977331 | 17.78° C | 100% | 896.3 hPa | - | 9.39 m/s, 230° | - | - |
| 1777977220 | 17.78° C | 100% | 896.5 hPa | - | 7.6 m/s, 225° | - | - |
| 1777977159 | 18.33° C | 100% | 897.1 hPa | - | 8.05 m/s, 226° | - | - |
| 1777977063 | 17.22° C | 100% | 896.9 hPa | - | 8.05 m/s, 225° | - | - |
| 1777976941 | 17.22° C | 100% | 896.5 hPa | - | 8.94 m/s, 210° | - | - |
| 1777976820 | 17.22° C | 100% | 896.5 hPa | - | 8.94 m/s, 216° | - | - |
| 1777976759 | 17.22° C | 100% | 896.5 hPa | - | 8.94 m/s, 212° | - | - |
| 1777976625 | 17.22° C | 100% | 896.2 hPa | - | 8.49 m/s, 211° | - | - |
| 1777976563 | 17.78° C | 100% | 896.3 hPa | - | 8.94 m/s, 209° | - | - |
| 1777976501 | 17.78° C | 100% | 896.6 hPa | - | 8.94 m/s, 212° | - | - |
| 1777976495 | 17.22° C | 100% | 896.2 hPa | - | 9.39 m/s, 212° | - | - |
| 1777976378 | 17.22° C | 100% | 896.3 hPa | - | 9.83 m/s, 216° | - | - |
| 1777976255 | 17.22° C | 100% | 896.2 hPa | - | 9.39 m/s, 212° | - | - |
| 1777976131 | 17.22° C | 100% | 895.9 hPa | - | 9.83 m/s, 209° | - | - |
| 1777976007 | 17.78° C | 100% | 895.6 hPa | - | 10.73 m/s, 211° | - | - |
| 1777975946 | 17.78° C | 100% | 895.7 hPa | - | 10.73 m/s, 212° | - | - |
| 1777975788 | 17.78° C | 100% | 896 hPa | - | 9.83 m/s, 212° | - | - |
| 1777975668 | 17.78° C | 100% | 896.6 hPa | - | 9.83 m/s, 223° | - | - |
| 1777975547 | 17.78° C | 100% | 896 hPa | - | 10.28 m/s, 225° | - | - |
| 1777975486 | 17.78° C | 100% | 896 hPa | - | 9.39 m/s, 223° | - | - |
| 1777975407 | 18.33° C | 100% | 896.4 hPa | - | 8.94 m/s, 229° | - | - |
| 1777975282 | 17.78° C | 100% | 897.1 hPa | - | 8.94 m/s, 228° | - | - |
* Rain since midnight (hover to see other rain measurements)
** Current wind speed in m/s (hover to see current wind gust speed)